Location: R�serve Fauniques des Laurentides
(47.3100°N, 71.1900°W)
Time: 19:11:39
(UTC-04:00)

Amateur Radio Satellites - All Passes

Search period start: 04 September 2015 18:41
Search period end: 05 September 2015 18:41
Location: R�serve Fauniques des Laurentides, 47.3100°N, 71.1900°W

Satellite Date Start Highest point End Downlink Frequencies (MHz)
Time Altitude Azimuth
MOZHAYETS 4 04 Sep 18:49:27 18:52:23 17° 299° (WNW) 18:55:11
BRITE-PL 04 Sep 18:57:12 19:01:33 47° 70° (ENE) 19:06:19 437.365/2234.400
DOVE 4 04 Sep 18:58:11 19:01:45 21° 61° (ENE) 19:05:36 437.250
Cubesat XI-IV 04 Sep 19:01:48 19:06:36 33° 265° (W) 19:11:22 437.490
GOMX 1 04 Sep 19:04:33 19:08:49 35° 67° (ENE) 19:13:26 467.674
STRAND 1 04 Sep 19:10:55 19:15:19 29° 94° (E) 19:19:46 437.568
CINEMA 3 04 Sep 19:13:40 19:16:15 15° 58° (ENE) 19:19:03 145.822/145.860
CUBESAT XI-V 04 Sep 19:16:32 19:21:11 72° 287° (WNW) 19:25:51 437.345
O/OREOS (USA 219) 04 Sep 19:21:42 19:26:03 42° 303° (WNW) 19:30:26 437.305
PRISM 04 Sep 19:28:30 19:31:58 26° 95° (E) 19:35:31 437.425
HO-68 04 Sep 19:30:25 19:37:12 49° 64° (ENE) 19:44:04 435.675
CUTE 1.7 + AOD 2 04 Sep 19:37:28 19:41:09 29° 68° (ENE) 19:44:53 437.475
CUTE-I 04 Sep 19:47:55 19:50:53 14° 274° (W) 19:53:36 437.470
CANX-2 04 Sep 19:51:44 19:55:48 44° 71° (ENE) 19:59:53 2200.000
Cosmos 2491 04 Sep 19:53:09 20:01:58 83° 80° (E) 20:10:47 435.465 / 435.565
FUNcube-1 04 Sep 19:58:41 19:59:12 10° 57° (ENE) 19:59:58 145.935
YUBILEINY 04 Sep 20:03:07 20:10:59 40° 86° (E) 20:19:02 435.215
SEEDS 04 Sep 20:05:25 20:09:26 44° 71° (ENE) 20:13:30 437.485
AIST 1 04 Sep 20:08:16 20:10:57 16° 274° (W) 20:13:28
UWE-3 04 Sep 20:09:15 20:12:14 17° 61° (ENE) 20:15:22 435.000/436.395/437.385
CUBEBUG 2 04 Sep 20:10:45 20:14:19 22° 63° (ENE) 20:18:02 437.445
COMPASS 1 04 Sep 20:20:00 20:24:03 49° 72° (ENE) 20:28:08 437.405
DELFI C3 04 Sep 20:21:36 20:23:44 14° 62° (ENE) 20:26:00 145.870
AAUSAT CUBESAT 2 04 Sep 20:26:20 20:30:22 49° 72° (ENE) 20:34:25 437.432
RS-15 04 Sep 20:31:51 20:41:50 33° 2° (N) 20:52:13 29.354- 29.394
DOVE 4 04 Sep 20:34:22 20:39:04 58° 261° (W) 20:44:06 437.250
Oscar 11 04 Sep 20:35:01 20:38:47 30° 67° (ENE) 20:42:37 145.826/435.025
BRITE-PL 04 Sep 20:36:51 20:40:27 22° 271° (W) 20:44:10 437.365/2234.400
GOMX 1 04 Sep 20:42:48 20:46:59 31° 267° (W) 20:51:26 467.674
CINEMA 3 04 Sep 20:47:55 20:52:44 89° 264° (W) 20:57:46 145.822/145.860
STRAND 1 04 Sep 20:49:53 20:54:40 41° 292° (WNW) 20:59:26 437.568
BEESAT 3 04 Sep 20:52:07 20:54:47 17° 32° (NNE) 20:57:30 437.485
CUBESAT XI-V 04 Sep 20:56:44 20:57:52 11° 303° (WNW) 20:58:46 437.345
Cosmos 2504 04 Sep 20:58:19 21:00:24 11° 70° (ENE) 21:03:08 435.465 / 435.565
PRISM 04 Sep 21:03:45 21:07:26 31° 292° (WNW) 21:11:04 437.425
BEESAT 2 04 Sep 21:10:39 21:13:33 19° 34° (NNE) 21:16:29 435.950
CUTE 1.7 + AOD 2 04 Sep 21:13:12 21:17:02 30° 265° (W) 21:20:49 437.475
AISAT 04 Sep 21:17:29 21:18:27 11° 57° (ENE) 21:19:38 437.250
HO-68 04 Sep 21:18:26 21:25:07 39° 264° (W) 21:31:45 435.675
ZACube-1 04 Sep 21:26:51 21:31:25 66° 73° (ENE) 21:36:00 437.345
CANX-2 04 Sep 21:28:43 21:31:58 20° 269° (W) 21:35:05 2200.000
FUNcube-1 04 Sep 21:30:10 21:34:43 69° 75° (ENE) 21:39:19 145.935
HUMSAT D 04 Sep 21:36:05 21:39:59 34° 68° (ENE) 21:43:55 437.325/437.525
VELOX 1 04 Sep 21:42:15 21:45:06 18° 61° (ENE) 21:48:05 145.980
SEEDS 04 Sep 21:42:18 21:45:28 20° 269° (W) 21:48:32 437.485
UWE-3 04 Sep 21:43:38 21:48:17 68° 259° (W) 21:53:00 435.000/436.395/437.385
CUBEBUG 2 04 Sep 21:46:04 21:50:40 52° 261° (W) 21:55:22 437.445
Cosmos 2491 04 Sep 21:51:17 21:57:56 24° 281° (W) 22:04:16 435.465 / 435.565
DELFI C3 04 Sep 21:54:20 21:58:22 63° 260° (W) 22:02:22 145.870
COMPASS 1 04 Sep 21:57:09 22:00:01 17° 270° (W) 22:02:47 437.405
YUBILEINY 04 Sep 21:59:04 22:07:39 53° 288° (WNW) 22:16:16 435.215
TIGRISAT 04 Sep 22:02:10 22:03:21 11° 84° (E) 22:04:48 435.000
50 SAT 04 Sep 22:02:14 22:05:33 27° 68° (ENE) 22:08:55 437.505
AAUSAT CUBESAT 2 04 Sep 22:03:24 22:06:16 17° 270° (W) 22:09:01 437.432
DX 1 04 Sep 22:10:03 22:14:11 46° 70° (ENE) 22:18:23 434.975-435.025
Oscar 11 04 Sep 22:11:03 22:14:57 30° 265° (W) 22:18:47 145.826/435.025
UKube-1 04 Sep 22:15:36 22:19:43 47° 71° (ENE) 22:23:54 .
AIST 2 04 Sep 22:16:58 22:20:01 19° 33° (NNE) 22:23:04 435.215
ANTELSAT 04 Sep 22:19:43 22:22:43 18° 89° (E) 22:25:49 437.575/2403.000
CINEMA 3 04 Sep 22:28:45 22:30:47 12° 277° (W) 22:32:35 145.822/145.860
BEESAT 3 04 Sep 22:29:14 22:33:19 88° 52° (NE) 22:37:19 437.485
CUBEBUG 1 04 Sep 22:37:06 22:41:01 35° 68° (ENE) 22:45:00 437.445
Cosmos 2504 04 Sep 22:42:49 22:50:48 56° 91° (E) 22:59:11 435.465 / 435.565
AUBIESAT-1 04 Sep 22:44:44 22:44:59 10° 91° (E) 22:45:25 437.475
RS-15 04 Sep 22:46:31 22:57:43 50° 34° (NNE) 23:09:28 29.354- 29.394
BEESAT 2 04 Sep 22:48:01 22:52:06 80° 235° (SW) 22:56:07 435.950
AISAT 04 Sep 22:49:53 22:54:18 77° 75° (ENE) 22:58:46 437.250
M-CUBED/EXP-1 PRIME 04 Sep 22:52:44 22:55:04 16° 94° (E) 22:57:24 437.505
ESTCUBE 1 04 Sep 22:53:11 22:57:36 61° 73° (ENE) 23:02:03 437.505/2401.250
DANDE 04 Sep 22:59:00 23:01:39 17° 80° (E) 23:04:56 436.750
SO-50 04 Sep 23:03:18 23:05:19 13° 109° (ESE) 23:07:35 436.795
TISAT 1 04 Sep 23:03:26 23:05:33 14° 60° (ENE) 23:07:49 437.305
ZACube-1 04 Sep 23:05:26 23:08:16 16° 273° (W) 23:10:57 437.345
FUNcube-1 04 Sep 23:08:54 23:11:35 15° 273° (W) 23:14:06 145.935
UNISAT 6 04 Sep 23:09:37 23:14:06 54° 99° (E) 23:18:28 437.425
HUMSAT D 04 Sep 23:12:03 23:15:46 26° 267° (W) 23:19:25 437.325/437.525
BUGSAT 1 04 Sep 23:13:02 23:15:07 14° 88° (E) 23:17:24 437.445
VELOX 1 04 Sep 23:16:53 23:21:14 60° 259° (W) 23:25:38 145.980
DUCHIFAT 1 04 Sep 23:24:06 23:27:45 27° 94° (E) 23:31:25 145.980
POLYITAN 1 04 Sep 23:26:54 23:30:43 30° 95° (E) 23:34:33 437.675
POPSAT HIP 1 04 Sep 23:27:40 23:31:29 30° 95° (E) 23:35:18 437.405
TIGRISAT 04 Sep 23:36:17 23:40:53 86° 285° (WNW) 23:45:20 435.000
50 SAT 04 Sep 23:36:32 23:40:01 28° 265° (W) 23:43:27 437.505
CUSAT 1 04 Sep 23:38:16 23:42:43 65° 97° (E) 23:48:46 437.405
PCSat 04 Sep 23:40:33 23:41:47 11° 103° (ESE) 23:43:20 145.827
NANOSAT C BR1 04 Sep 23:43:01 23:47:08 43° 98° (E) 23:51:13 145.865
QB50P2 04 Sep 23:45:37 23:49:47 48° 99° (E) 23:53:57 145.880/145.840
DX 1 04 Sep 23:47:27 23:50:42 20° 268° (W) 23:53:53 434.975-435.025
SPROUT 04 Sep 23:50:34 23:54:50 63° 73° (ENE) 23:59:07 437.525
UKube-1 04 Sep 23:52:57 23:56:07 19° 269° (W) 23:59:13 .
ITUPSAT 1 04 Sep 23:53:25 23:53:59 10° 54° (NE) 23:54:46 437.325
AIST 2 04 Sep 23:54:54 23:59:07 82° 235° (SW) 00:03:15 435.215
ANTELSAT 04 Sep 23:55:26 23:59:55 54° 288° (WNW) 00:04:15 437.575/2403.000
QB50P1 04 Sep 23:58:33 00:02:51 64° 101° (E) 00:07:05 145.935-145.965
YUBILEINY 05 Sep 00:03:04 00:07:14 13° 315° (NW) 00:10:55 435.215
BEESAT 3 05 Sep 00:09:32 00:10:38 11° 250° (WSW) 00:11:32 437.485
CUBEBUG 1 05 Sep 00:13:46 00:17:27 26° 267° (W) 00:21:05 437.445
AUBIESAT-1 05 Sep 00:16:30 00:20:23 70° 292° (WNW) 00:23:57 437.475
BEESAT 05 Sep 00:20:44 00:23:54 18° 60° (ENE) 00:27:11 436.000
M-CUBED/EXP-1 PRIME 05 Sep 00:26:26 00:30:15 45° 295° (WNW) 00:33:44 437.505
AISAT 05 Sep 00:29:32 00:31:31 12° 273° (W) 00:33:17 437.250
ESTCUBE 1 05 Sep 00:32:06 00:34:56 16° 271° (W) 00:37:36 437.505/2401.250
Cosmos 2504 05 Sep 00:35:39 00:43:25 39° 293° (WNW) 00:51:21 435.465 / 435.565
TISAT 1 05 Sep 00:36:34 00:40:47 74° 257° (WSW) 00:45:03 437.305
DANDE 05 Sep 00:39:52 00:43:54 55° 288° (WNW) 00:49:23 436.750
SO-50 05 Sep 00:40:19 00:45:09 83° 124° (SE) 00:50:07 436.795
SWISSCUBE 05 Sep 00:46:10 00:50:19 32° 66° (ENE) 00:54:33 437.505
BUGSAT 1 05 Sep 00:46:50 00:51:05 66° 287° (WNW) 00:55:19 437.445
UNISAT 6 05 Sep 00:47:11 00:50:31 20° 298° (WNW) 00:53:41 437.425
GONETS M04 05 Sep 00:54:11 00:59:40 20° 77° (ENE) 01:05:34
RS-15 05 Sep 00:59:19 01:11:02 70° 240° (WSW) 01:23:06 29.354- 29.394
DUCHIFAT 1 05 Sep 00:59:43 01:03:35 33° 292° (WNW) 01:07:23 145.980
POLYITAN 1 05 Sep 01:02:48 01:06:35 29° 293° (WNW) 01:10:17 437.675
POPSAT HIP 1 05 Sep 01:03:32 01:07:19 30° 293° (WNW) 01:11:01 437.405
TIGRISAT 05 Sep 01:15:00 01:16:56 12° 303° (WNW) 01:18:40 435.000
PCSat 05 Sep 01:18:58 01:24:20 71° 120° (ESE) 01:29:47 145.827
NANOSAT C BR1 05 Sep 01:19:23 01:22:43 22° 296° (WNW) 01:25:57 145.865
QB50P2 05 Sep 01:22:11 01:25:23 20° 296° (WNW) 01:28:28 145.880/145.840
CUSAT 1 05 Sep 01:22:27 01:26:14 20° 305° (NW) 01:30:38 437.405
ITUPSAT 1 05 Sep 01:26:19 01:31:02 65° 73° (ENE) 01:35:48 437.325
SPROUT 05 Sep 01:28:55 01:31:23 14° 272° (W) 01:33:41 437.525
QB50P1 05 Sep 01:35:34 01:38:15 16° 299° (WNW) 01:40:48 145.935-145.965
Gurwin Techsat 1B 05 Sep 01:51:01 01:53:47 15° 86° (E) 01:56:48 435.225
KKS-1 05 Sep 01:54:29 01:58:02 24° 64° (ENE) 02:01:40 437.445
BEESAT 05 Sep 01:56:33 02:01:17 66° 258° (WSW) 02:06:04 436.000
JAS-2 05 Sep 01:59:22 02:00:37 11° 76° (ENE) 02:02:19 435.910
VERMONT LUNAR 05 Sep 02:02:36 02:03:54 12° 160° (SSE) 02:05:16 437.305
O/OREOS (USA 219) 05 Sep 02:10:58 02:13:23 14° 42° (NE) 02:15:56 437.305
Oscar 19 05 Sep 02:11:04 02:16:15 62° 101° (E) 02:21:23 437.125/150
SO-50 05 Sep 02:22:21 02:26:19 23° 328° (NNW) 02:30:17 436.795
SWISSCUBE 05 Sep 02:23:48 02:28:09 34° 264° (W) 02:32:28 437.505
Cosmos 2499 05 Sep 02:26:17 02:32:03 21° 77° (ENE) 02:38:18 435.465 / 435.565
MOZHAYETS 4 05 Sep 02:41:52 02:43:51 13° 59° (ENE) 02:45:59
GONETS M04 05 Sep 02:46:38 02:55:19 85° 99° (E) 03:04:08
STARS 05 Sep 02:59:31 03:03:52 61° 72° (ENE) 03:08:17 437.465
PCSat 05 Sep 03:03:45 03:08:18 26° 321° (NW) 03:12:49 145.827
AO-7 05 Sep 03:05:24 03:09:40 15° 83° (E) 03:14:28 29.400- 29.500
ITUPSAT 1 05 Sep 03:06:22 03:09:27 16° 271° (W) 03:12:22 437.325
RS-15 05 Sep 03:13:54 03:21:41 19° 261° (W) 03:28:49 29.354- 29.394
ITAMSAT 1 05 Sep 03:20:06 03:25:17 68° 102° (ESE) 03:30:28 435.822/435.867
Gurwin Techsat 1B 05 Sep 03:29:13 03:34:34 84° 286° (WNW) 03:39:54 435.225
KKS-1 05 Sep 03:30:13 03:34:28 42° 262° (W) 03:38:44 437.445
VERMONT LUNAR 05 Sep 03:37:19 03:39:42 22° 176° (S) 03:42:05 437.305
JAS-2 05 Sep 03:40:40 03:47:35 64° 100° (E) 03:53:38 435.910
O/OREOS (USA 219) 05 Sep 03:49:01 03:53:40 82° 65° (ENE) 03:58:16 437.305
Oscar 19 05 Sep 03:51:15 03:55:12 22° 299° (WNW) 03:59:02 437.125/150
SO-50 05 Sep 04:07:09 04:08:39 11° 352° (N) 04:10:06 436.795
PHONESAT 2.4 05 Sep 04:13:57 04:15:49 14° 159° (SSE) 04:17:44 2401.200-2431.200
Cosmos 2499 05 Sep 04:15:24 04:24:03 85° 98° (E) 04:33:02 435.465 / 435.565
MOZHAYETS 4 05 Sep 04:15:49 04:20:26 89° 72° (ENE) 04:25:04
HORYU 2 05 Sep 04:30:10 04:34:27 44° 98° (E) 04:38:42 437.375
STARS 05 Sep 04:37:59 04:40:46 16° 271° (W) 04:43:24 437.465
GONETS M04 05 Sep 04:46:29 04:53:30 25° 302° (WNW) 05:00:18
CUBESAT XI-V 05 Sep 04:47:01 04:50:23 21° 63° (ENE) 04:53:51 437.345
PCSat 05 Sep 04:52:44 04:53:44 10° 346° (NNW) 04:54:39 145.827
AO-7 05 Sep 04:55:54 05:04:13 72° 106° (ESE) 05:12:29 29.400- 29.500
ITAMSAT 1 05 Sep 05:00:34 05:04:21 20° 300° (WNW) 05:08:00 435.822/435.867
Gurwin Techsat 1B 05 Sep 05:10:49 05:13:50 15° 304° (NW) 05:16:40 435.225
VERMONT LUNAR 05 Sep 05:13:29 05:15:34 17° 193° (SSW) 05:17:38 437.305
JAS-2 05 Sep 05:26:19 05:32:08 28° 302° (WNW) 05:37:17 435.910
O/OREOS (USA 219) 05 Sep 05:30:27 05:32:29 12° 261° (W) 05:34:18 437.305
Cubesat XI-IV 05 Sep 05:37:48 05:39:10 11° 83° (E) 05:40:54 437.490
SO-50 05 Sep 05:49:03 05:51:20 13° 16° (NNE) 05:53:42 436.795
PHONESAT 2.4 05 Sep 05:50:12 05:53:04 25° 175° (S) 05:55:56 2401.200-2431.200
MOZHAYETS 4 05 Sep 05:56:58 05:58:25 11° 275° (W) 05:59:36
HORYU 2 05 Sep 06:07:19 06:10:51 23° 296° (WNW) 06:14:17 437.375
YUBILEINY 05 Sep 06:08:50 06:15:35 24° 57° (ENE) 06:22:33 435.215
Cosmos 2499 05 Sep 06:11:21 06:18:31 26° 302° (WNW) 06:25:34 435.465 / 435.565
CUTE-I 05 Sep 06:18:59 06:23:24 26° 93° (E) 06:27:54 437.470
PRISM 05 Sep 06:21:27 06:25:01 30° 67° (ENE) 06:28:37 437.425
CUBESAT XI-V 05 Sep 06:23:02 06:27:31 51° 261° (W) 06:32:01 437.345
STRAND 1 05 Sep 06:29:43 06:34:42 57° 71° (ENE) 06:39:43 437.568
PCSat 05 Sep 06:39:12 06:39:49 10° 13° (NNE) 06:40:31 145.827
AO-7 05 Sep 06:49:20 06:56:30 33° 306° (NW) 07:03:30 29.400- 29.500
BRITE-PL 05 Sep 06:59:15 07:02:29 16° 85° (E) 07:05:59 437.365/2234.400
AIST 1 05 Sep 07:02:37 07:06:10 27° 90° (E) 07:09:48
Cosmos 2491 05 Sep 07:05:13 07:10:43 20° 77° (ENE) 07:16:37 435.465 / 435.565
GOMX 1 05 Sep 07:06:15 07:06:26 10° 81° (E) 07:07:00 467.674
ISS 05 Sep 07:11:14 07:13:51 23° 141° (SE) 07:16:31 145.825
Cubesat XI-IV 05 Sep 07:14:57 07:20:18 78° 103° (ESE) 07:25:39 437.490
PHONESAT 2.4 05 Sep 07:27:44 07:30:25 21° 192° (SSW) 07:33:04 2401.200-2431.200
SO-50 05 Sep 07:28:51 07:33:23 34° 39° (NE) 07:37:51 436.795
PRISM 05 Sep 07:56:56 08:00:27 27° 265° (W) 08:03:56 437.425
CUTE-I 05 Sep 07:58:37 08:03:44 48° 292° (WNW) 08:08:50 437.470
YUBILEINY 05 Sep 08:04:56 08:13:50 89° 262° (W) 08:22:39 435.215
STRAND 1 05 Sep 08:10:29 08:14:20 21° 270° (W) 08:18:04 437.568
PCSat 05 Sep 08:20:50 08:25:17 25° 38° (NE) 08:29:47 145.827
Cosmos 2504 05 Sep 08:26:13 08:32:36 24° 57° (ENE) 08:38:58 435.465 / 435.565
CUSAT 1 05 Sep 08:28:10 08:33:27 20° 55° (NE) 08:39:16 437.405
DOVE 4 05 Sep 08:30:12 08:35:04 35° 94° (E) 08:39:52 437.250
BRITE-PL 05 Sep 08:36:06 08:41:43 87° 286° (WNW) 08:47:27 437.365/2234.400
UNISAT 6 05 Sep 08:38:43 08:39:45 11° 56° (ENE) 08:41:01 437.425
AIST 1 05 Sep 08:39:59 08:43:46 30° 288° (WNW) 08:47:32
GOMX 1 05 Sep 08:40:12 08:45:41 67° 100° (E) 08:51:09 467.674
CINEMA 3 05 Sep 08:40:40 08:44:14 20° 88° (E) 08:47:50 145.822/145.860
HO-68 05 Sep 08:41:59 08:48:31 37° 95° (E) 08:55:06 435.675
AO-7 05 Sep 08:45:45 08:46:49 10° 331° (NNW) 08:47:34 29.400- 29.500
ISS 05 Sep 08:46:47 08:50:02 72° 338° (NNW) 08:53:18 145.825
CUTE 1.7 + AOD 2 05 Sep 08:54:45 08:58:39 35° 96° (E) 09:02:32 437.475
Cubesat XI-IV 05 Sep 08:56:13 08:59:52 19° 302° (WNW) 09:03:23 437.490
Cosmos 2491 05 Sep 08:57:43 09:06:25 85° 98° (E) 09:15:11 435.465 / 435.565
TIGRISAT 05 Sep 09:03:01 09:05:59 17° 61° (ENE) 09:09:06 435.000
SO-50 05 Sep 09:09:20 09:14:06 47° 240° (WSW) 09:18:44 436.795
CANX-2 05 Sep 09:09:23 09:13:34 57° 100° (E) 09:17:43 2200.000
ZACube-1 05 Sep 09:15:31 09:16:01 10° 84° (E) 09:16:49 437.345
FUNcube-1 05 Sep 09:18:13 09:19:07 11° 84° (E) 09:20:16 145.935
ANTELSAT 05 Sep 09:21:16 09:25:03 25° 65° (ENE) 09:28:56 437.575/2403.000
SEEDS 05 Sep 09:21:56 09:26:04 55° 100° (E) 09:30:09 437.485
DANDE 05 Sep 09:31:15 09:38:05 34° 65° (ENE) 09:45:41 436.750
UWE-3 05 Sep 09:31:18 09:34:41 21° 90° (E) 09:38:05 435.000/436.395/437.385
DELFI C3 05 Sep 09:31:27 09:33:25 14° 88° (E) 09:35:34 145.870
AUBIESAT-1 05 Sep 09:31:49 09:35:53 31° 62° (ENE) 09:39:53 437.475
CUBEBUG 2 05 Sep 09:34:26 09:38:26 28° 93° (E) 09:42:22 437.445
COMPASS 1 05 Sep 09:35:30 09:39:37 61° 100° (E) 09:43:43 437.405
AAUSAT CUBESAT 2 05 Sep 09:41:16 09:45:22 59° 100° (E) 09:49:26 437.432
M-CUBED/EXP-1 PRIME 05 Sep 09:41:37 09:46:06 43° 65° (ENE) 09:50:28 437.505
Oscar 11 05 Sep 09:54:41 09:58:43 37° 97° (E) 10:02:44 145.826/435.025
YUBILEINY 05 Sep 10:03:19 10:09:33 21° 283° (WNW) 10:15:24 435.215
PCSat 05 Sep 10:03:51 10:09:18 75° 240° (WSW) 10:14:43 145.827
BUGSAT 1 05 Sep 10:06:20 10:08:42 15° 61° (ENE) 10:11:12 437.445
DOVE 4 05 Sep 10:07:55 10:12:48 37° 293° (WNW) 10:17:34 437.250
CUSAT 1 05 Sep 10:09:30 10:17:27 71° 76° (ENE) 10:25:39 437.405
UNISAT 6 05 Sep 10:11:04 10:15:44 70° 74° (ENE) 10:20:27 437.425
BRITE-PL 05 Sep 10:16:01 10:19:34 17° 301° (WNW) 10:22:57 437.365/2234.400
CINEMA 3 05 Sep 10:16:55 10:21:51 57° 288° (WNW) 10:26:35 145.822/145.860
Cosmos 2504 05 Sep 10:17:40 10:26:13 89° 263° (W) 10:34:10 435.465 / 435.565
GOMX 1 05 Sep 10:19:08 10:23:21 22° 298° (WNW) 10:27:26 467.674
DUCHIFAT 1 05 Sep 10:19:18 10:23:01 31° 67° (ENE) 10:26:49 145.980
POLYITAN 1 05 Sep 10:22:43 10:26:36 35° 68° (ENE) 10:30:34 437.675
POPSAT HIP 1 05 Sep 10:23:18 10:27:09 35° 68° (ENE) 10:31:05 437.405
ISS 05 Sep 10:23:41 10:26:46 36° 358° (N) 10:29:50 145.825
HO-68 05 Sep 10:29:34 10:36:31 52° 295° (WNW) 10:43:24 435.675
CUTE 1.7 + AOD 2 05 Sep 10:30:56 10:34:25 25° 294° (WNW) 10:37:48 437.475
TIGRISAT 05 Sep 10:37:33 10:42:15 70° 259° (WSW) 10:46:59 435.000
NANOSAT C BR1 05 Sep 10:38:17 10:42:22 48° 71° (ENE) 10:46:31 145.865
AISAT 05 Sep 10:39:20 10:40:55 12° 86° (E) 10:42:45 437.250
QB50P2 05 Sep 10:41:15 10:45:25 54° 72° (ENE) 10:49:38 145.880/145.840
ESTCUBE 1 05 Sep 10:45:56 10:46:05 10° 84° (E) 10:46:32 437.505/2401.250
CANX-2 05 Sep 10:46:20 10:49:06 17° 297° (WNW) 10:51:44 2200.000
ZACube-1 05 Sep 10:48:40 10:53:11 90° 302° (WNW) 10:57:33 437.345
FUNcube-1 05 Sep 10:51:43 10:56:13 87° 285° (WNW) 11:00:34 145.935
HUMSAT D 05 Sep 10:52:12 10:56:11 39° 97° (E) 11:00:07 437.325/437.525
QB50P1 05 Sep 10:53:57 10:58:12 71° 75° (ENE) 11:02:31 145.935-145.965
ANTELSAT 05 Sep 10:57:06 11:01:38 44° 263° (W) 11:06:08 437.575/2403.000
Cosmos 2491 05 Sep 10:57:37 11:04:36 25° 302° (WNW) 11:11:21 435.465 / 435.565
GONETS M04 05 Sep 10:58:34 11:01:47 13° 44° (NE) 11:05:33
SEEDS 05 Sep 10:58:43 11:01:28 17° 297° (WNW) 11:04:06 437.485
VELOX 1 05 Sep 11:04:41 11:08:00 21° 91° (E) 11:11:26 145.980
DELFI C3 05 Sep 11:04:58 11:08:55 57° 287° (WNW) 11:12:48 145.870
AUBIESAT-1 05 Sep 11:06:07 11:10:30 36° 258° (WSW) 11:14:42 437.475
UWE-3 05 Sep 11:07:05 11:11:31 47° 289° (WNW) 11:15:46 435.000/436.395/437.385
50 SAT 05 Sep 11:08:12 11:11:20 24° 94° (E) 11:14:31 437.505
CUBEBUG 2 05 Sep 11:10:54 11:15:12 36° 292° (WNW) 11:19:18 437.445
COMPASS 1 05 Sep 11:12:21 11:14:52 15° 298° (WNW) 11:17:15 437.405
DANDE 05 Sep 11:13:58 11:21:45 69° 263° (W) 11:30:12 436.750
M-CUBED/EXP-1 PRIME 05 Sep 11:16:56 11:20:59 26° 261° (W) 11:24:51 437.505
AAUSAT CUBESAT 2 05 Sep 11:18:01 11:20:33 16° 298° (WNW) 11:22:57 437.432
DX 1 05 Sep 11:31:02 11:35:22 55° 101° (E) 11:39:41 434.975-435.025
Oscar 11 05 Sep 11:31:12 11:34:44 24° 295° (WNW) 11:38:11 145.826/435.025
UKube-1 05 Sep 11:35:36 11:39:53 55° 101° (E) 11:44:10 .
BUGSAT 1 05 Sep 11:39:38 11:43:42 62° 259° (W) 11:47:51 437.445
PCSat 05 Sep 11:49:50 11:51:54 12° 256° (WSW) 11:53:41 145.827
UNISAT 6 05 Sep 11:50:13 11:53:04 15° 273° (W) 11:55:44 437.425
CUSAT 1 05 Sep 11:52:44 11:59:34 31° 273° (W) 12:06:19 437.405
Oscar 19 05 Sep 11:53:46 11:57:22 20° 60° (ENE) 12:01:08 437.125/150
DUCHIFAT 1 05 Sep 11:55:05 11:58:49 29° 265° (W) 12:02:32 145.980
CUBEBUG 1 05 Sep 11:58:26 12:02:41 45° 98° (E) 12:06:57 437.445
POLYITAN 1 05 Sep 11:58:58 12:02:35 25° 267° (W) 12:06:10 437.675
POPSAT HIP 1 05 Sep 11:59:29 12:03:05 25° 267° (W) 12:06:40 437.405
ISS 05 Sep 12:00:18 12:03:32 56° 18° (NNE) 12:06:45 145.825
Cosmos 2504 05 Sep 12:11:24 12:17:17 21° 283° (WNW) 12:22:37 435.465 / 435.565
AISAT 05 Sep 12:13:38 12:18:10 82° 285° (WNW) 12:22:39 437.250
JAS-2 05 Sep 12:15:05 12:17:53 13° 45° (NE) 12:21:01 435.910
NANOSAT C BR1 05 Sep 12:15:27 12:18:29 18° 270° (W) 12:21:27 145.865
QB50P2 05 Sep 12:18:52 12:21:41 17° 271° (W) 12:24:23 145.880/145.840
TISAT 1 05 Sep 12:19:09 12:21:25 14° 88° (E) 12:23:51 437.305
ESTCUBE 1 05 Sep 12:19:13 12:23:45 87° 105° (ESE) 12:28:17 437.505/2401.250
HO-68 05 Sep 12:19:26 12:22:47 14° 316° (NW) 12:25:49 435.675
AO-7 05 Sep 12:22:42 12:23:53 10° 30° (NNE) 12:25:23 29.400- 29.500
ZACube-1 05 Sep 12:26:55 12:28:53 12° 302° (WNW) 12:30:38 437.345
HUMSAT D 05 Sep 12:28:22 12:31:42 22° 295° (WNW) 12:34:55 437.325/437.525
FUNcube-1 05 Sep 12:30:04 12:31:50 12° 302° (WNW) 12:33:24 145.935
QB50P1 05 Sep 12:32:38 12:34:38 13° 273° (W) 12:36:26 145.935-145.965
VELOX 1 05 Sep 12:40:31 12:44:49 47° 290° (WNW) 12:49:06 145.980
50 SAT 05 Sep 12:42:29 12:45:53 30° 292° (WNW) 12:49:13 437.505
GONETS M04 05 Sep 12:52:58 13:01:29 51° 71° (ENE) 13:10:04
DANDE 05 Sep 12:59:09 13:03:57 17° 279° (W) 13:08:29 436.750
ITAMSAT 1 05 Sep 13:03:34 13:07:25 22° 61° (ENE) 13:11:24 435.822/435.867
DX 1 05 Sep 13:08:09 13:11:15 19° 298° (WNW) 13:14:15 434.975-435.025
SPROUT 05 Sep 13:09:49 13:14:12 81° 102° (ESE) 13:18:32 437.525
UKube-1 05 Sep 13:12:36 13:15:39 18° 298° (WNW) 13:18:35 .
Gurwin Techsat 1B 05 Sep 13:14:31 13:19:10 32° 65° (ENE) 13:23:53 435.225
RS-15 05 Sep 13:23:11 13:26:42 13° 95° (E) 13:31:14 29.354- 29.394
ITUPSAT 1 05 Sep 13:25:26 13:27:34 13° 86° (E) 13:29:56 437.325
Oscar 19 05 Sep 13:31:05 13:36:15 69° 257° (WSW) 13:41:29 437.125/150
CUBEBUG 1 05 Sep 13:35:20 13:38:48 22° 296° (WNW) 13:42:10 437.445
ISS 05 Sep 13:36:52 13:39:51 33° 216° (SW) 13:42:48 145.825
AISAT 05 Sep 13:52:25 13:54:03 12° 303° (WNW) 13:55:30 437.250
TISAT 1 05 Sep 13:53:24 13:57:39 63° 287° (WNW) 14:01:52 437.305
JAS-2 05 Sep 13:53:57 14:01:17 46° 65° (ENE) 14:08:34 435.910
BEESAT 05 Sep 13:53:59 13:57:53 25° 93° (E) 14:01:49 436.000
ESTCUBE 1 05 Sep 13:57:50 14:00:01 13° 301° (WNW) 14:02:03 437.505/2401.250
BEESAT 3 05 Sep 14:01:37 14:05:36 58° 123° (ESE) 14:09:38 437.485
Cosmos 2499 05 Sep 14:03:40 14:11:39 40° 67° (ENE) 14:19:12 435.465 / 435.565
AO-7 05 Sep 14:07:07 14:14:14 34° 54° (NE) 14:21:28 29.400- 29.500
SWISSCUBE 05 Sep 14:20:17 14:24:53 47° 99° (E) 14:29:29 437.505
BEESAT 2 05 Sep 14:21:25 14:25:30 69° 124° (SE) 14:29:36 435.950
ITAMSAT 1 05 Sep 14:41:27 14:46:33 60° 259° (WSW) 14:51:42 435.822/435.867
SPROUT 05 Sep 14:47:34 14:49:42 13° 300° (WNW) 14:51:41 437.525
GONETS M04 05 Sep 14:50:09 14:58:16 42° 273° (W) 15:06:16
Gurwin Techsat 1B 05 Sep 14:54:04 14:59:04 40° 263° (W) 15:04:04 435.225
ITUPSAT 1 05 Sep 15:01:22 15:06:09 81° 287° (WNW) 15:10:56 437.325
KKS-1 05 Sep 15:18:05 15:22:02 29° 95° (E) 15:25:58 437.445
RS-15 05 Sep 15:26:08 15:36:40 58° 116° (ESE) 15:47:44 29.354- 29.394
HORYU 2 05 Sep 15:31:08 15:35:33 61° 72° (ENE) 15:40:00 437.375
BEESAT 05 Sep 15:31:23 15:35:54 42° 291° (WNW) 15:40:22 436.000
AIST 2 05 Sep 15:33:22 15:37:36 77° 125° (SE) 15:41:52 435.215
JAS-2 05 Sep 15:38:45 15:46:17 48° 264° (W) 15:53:44 435.910
BEESAT 3 05 Sep 15:40:32 15:43:50 23° 323° (NW) 15:47:07 437.485
Cosmos 2499 05 Sep 15:56:51 16:05:08 52° 270° (W) 16:12:48 435.465 / 435.565
AO-7 05 Sep 15:58:13 16:06:33 70° 255° (WSW) 16:14:53 29.400- 29.500
SWISSCUBE 05 Sep 15:58:40 16:02:29 24° 297° (WNW) 16:06:14 437.505
BEESAT 2 05 Sep 16:00:46 16:03:57 21° 325° (NW) 16:07:05 435.950
MOZHAYETS 4 05 Sep 16:08:48 16:11:43 17° 89° (E) 16:14:46
CUTE-I 05 Sep 16:08:58 16:09:52 11° 52° (NE) 16:11:03 437.470
STARS 05 Sep 16:22:12 16:26:41 78° 104° (ESE) 16:31:07 437.465
ITUPSAT 1 05 Sep 16:41:16 16:43:20 12° 304° (WNW) 16:45:13 437.325
KKS-1 05 Sep 16:54:37 16:58:41 33° 293° (WNW) 17:02:40 437.445
Cubesat XI-IV 05 Sep 17:01:29 17:05:52 27° 63° (ENE) 17:10:21 437.490
AIST 1 05 Sep 17:07:52 17:08:53 11° 61° (ENE) 17:10:07
HORYU 2 05 Sep 17:09:45 17:12:38 16° 271° (W) 17:15:23 437.375
Cosmos 2491 05 Sep 17:09:45 17:12:55 12° 44° (NE) 17:16:37 435.465 / 435.565
AIST 2 05 Sep 17:13:26 17:16:40 20° 326° (NW) 17:19:51 435.215
HO-68 05 Sep 17:34:17 17:34:30 10° 39° (NE) 17:35:04 435.675
RS-15 05 Sep 17:38:33 17:49:23 55° 323° (NW) 18:00:41 29.354- 29.394
CUTE-I 05 Sep 17:43:47 17:48:58 58° 71° (ENE) 17:54:13 437.470
MOZHAYETS 4 05 Sep 17:44:53 17:49:23 58° 288° (WNW) 17:53:51
Cosmos 2499 05 Sep 17:55:35 17:56:18 10° 291° (WNW) 17:56:21 435.465 / 435.565
AO-7 05 Sep 17:56:23 18:01:06 15° 277° (W) 18:05:18 29.400- 29.500
STARS 05 Sep 18:00:06 18:02:35 14° 301° (WNW) 18:04:53 437.465
O/OREOS (USA 219) 05 Sep 18:04:17 18:08:41 51° 110° (ESE) 18:13:09 437.305
BRITE-PL 05 Sep 18:13:32 18:16:55 21° 61° (ENE) 18:20:37 437.365/2234.400
GOMX 1 05 Sep 18:16:10 18:18:44 15° 57° (ENE) 18:21:34 467.674
CUBESAT XI-V 05 Sep 18:16:29 18:20:36 31° 94° (E) 18:24:47 437.345
